owner,sensor,date,latitude,longitude,vertical_datum,direction_of_sea_water_velocity,sea_water_speed,upward_sea_water_velocity,qcFlag 
TABS,ioos:station:wmo:42050:1,1996-11-07T08:30:00Z,28.8425,-94.2433,2.0,331.5942095,6.264223815,-99999.0,'11133222,11111222,99999999' 
TABS,ioos:station:wmo:42050:1,1996-11-07T09:00:00Z,28.8425,-94.2433,2.0,285.5537496,9.435518004,-99999.0,'11133222,11111222,99999999' 
TABS,ioos:station:wmo:42050:1,1996-11-07T09:30:00Z,28.8425,-94.2433,2.0,262.8302329,4.807587753,-99999.0,'11133222,11111222,99999999' 
TABS,ioos:station:wmo:42050:1,1996-11-07T10:00:00Z,28.8425,-94.2433,2.0,272.9562629,5.817740111,-99999.0,'11133222,11111222,99999999' 
TABS,ioos:station:wmo:42050:1,1996-11-07T10:30:00Z,28.8425,-94.2433,2.0,258.2718707,8.068432314,-99999.0,'11133222,11111222,99999999' 
TABS,ioos:station:wmo:42050:1,1996-11-07T11:00:00Z,28.8425,-94.2433,2.0,262.289705,8.870186018,-99999.0,'11133222,11111222,99999999' 
TABS,ioos:station:wmo:42050:1,1996-11-07T11:30:00Z,28.8425,-94.2433,2.0,267.4358149,6.706713055,-99999.0,'11133222,11111222,99999999' 
TABS,ioos:station:wmo:42050:1,1996-11-07T12:00:00Z,28.8425,-94.2433,2.0,282.54858,9.619781702,-99999.0,'11133222,11111222,99999999' 
TABS,ioos:station:wmo:42050:1,1996-11-07T12:30:00Z,28.8425,-94.2433,2.0,276.8350949,11.26001776,-99999.0,'11111222,11111222,99999999' 
TABS,ioos:station:wmo:42050:1,1996-11-07T13:00:00Z,28.8425,-94.2433,2.0,289.396885,5.841549452,-99999.0,'11133222,11111222,99999999' 
TABS,ioos:station:wmo:42050:1,1996-11-07T13:30:00Z,28.8425,-94.2433,2.0,311.403607,4.959516105,-99999.0,'11133222,11111222,99999999' 
TABS,ioos:station:wmo:42050:1,1996-11-07T14:00:00Z,28.8425,-94.2433,2.0,325.9755826,6.648195244,-99999.0,'11133222,11111222,99999999' 
TABS,ioos:station:wmo:42050:1,1996-11-07T14:30:00Z,28.8425,-94.2433,2.0,331.5123488,1.865931403,-99999.0,'11133222,11111222,99999999' 
TABS,ioos:station:wmo:42050:1,1996-11-07T15:00:00Z,28.8425,-94.2433,2.0,107.457676,2.96664794,-99999.0,'11133222,11111222,99999999' 
TABS,ioos:station:wmo:42050:1,1996-11-07T15:30:00Z,28.8425,-94.2433,2.0,181.8009458,9.544715816,-99999.0,'11133222,11111222,99999999' 
TABS,ioos:station:wmo:42050:1,1996-11-07T16:00:00Z,28.8425,-94.2433,2.0,201.8232443,9.630160954,-99999.0,'11133222,11111222,99999999' 
TABS,ioos:station:wmo:42050:1,1996-11-07T16:30:00Z,28.8425,-94.2433,2.0,210.3350569,18.29485447,-99999.0,'11111222,11111222,99999999' 
TABS,ioos:station:wmo:42050:1,1996-11-07T17:00:00Z,28.8425,-94.2433,2.0,217.1605965,18.50823871,-99999.0,'11111222,11111222,99999999' 
TABS,ioos:station:wmo:42050:1,1996-11-07T17:30:00Z,28.8425,-94.2433,2.0,225.4763426,12.74957646,-99999.0,'11111222,11111222,99999999' 
TABS,ioos:station:wmo:42050:1,1996-11-07T18:00:00Z,28.8425,-94.2433,2.0,227.4701599,14.76396966,-99999.0,'11111222,11111222,99999999' 
TABS,ioos:station:wmo:42050:1,1996-11-07T18:30:00Z,28.8425,-94.2433,2.0,224.6274788,16.32744009,-99999.0,'11111222,11111222,99999999' 
TABS,ioos:station:wmo:42050:1,1996-11-07T19:00:00Z,28.8425,-94.2433,2.0,220.3378221,18.18330278,-99999.0,'11111222,11111222,99999999' 
TABS,ioos:station:wmo:42050:1,1996-11-07T19:30:00Z,28.8425,-94.2433,2.0,216.2376676,19.40318015,-99999.0,'11111222,11111222,99999999' 
TABS,ioos:station:wmo:42050:1,1996-11-07T20:00:00Z,28.8425,-94.2433,2.0,210.0199854,23.22577232,-99999.0,'11111222,11111222,99999999' 
TABS,ioos:station:wmo:42050:1,1996-11-07T20:30:00Z,28.8425,-94.2433,2.0,214.843226,26.86680107,-99999.0,'11111222,11111222,99999999' 
TABS,ioos:station:wmo:42050:1,1996-11-07T21:00:00Z,28.8425,-94.2433,2.0,208.7795285,27.54209869,-99999.0,'11111222,11111222,99999999' 
TABS,ioos:station:wmo:42050:1,1996-11-07T21:30:00Z,28.8425,-94.2433,2.0,210.4652632,29.38739356,-99999.0,'11111222,11111222,99999999' 
TABS,ioos:station:wmo:42050:1,1996-11-07T22:00:00Z,28.8425,-94.2433,2.0,207.8058812,27.46088491,-99999.0,'11111222,11111222,99999999' 
TABS,ioos:station:wmo:42050:1,1996-11-07T22:30:00Z,28.8425,-94.2433,2.0,203.03693,27.03610179,-99999.0,'11111222,11111222,99999999' 
TABS,ioos:station:wmo:42050:1,1996-11-07T23:00:00Z,28.8425,-94.2433,2.0,205.5098788,25.26290561,-99999.0,'11111222,11111222,99999999' 
TABS,ioos:station:wmo:42050:1,1996-11-07T23:30:00Z,28.8425,-94.2433,2.0,206.9984632,26.5876099,-99999.0,'11111222,11111222,99999999' 
TABS,ioos:station:wmo:42050:1,1996-11-08T00:00:00Z,28.8425,-94.2433,2.0,207.0112028,25.25491833,-99999.0,'11111222,11111222,99999999' 
TABS,ioos:station:wmo:42050:1,1996-11-08T00:30:00Z,28.8425,-94.2433,2.0,201.7916761,22.46542232,-99999.0,'11111222,11111222,99999999' 
TABS,ioos:station:wmo:42050:1,1996-11-08T01:00:00Z,28.8425,-94.2433,2.0,209.2207035,24.41725824,-99999.0,'11111222,11111222,99999999' 
TABS,ioos:station:wmo:42050:1,1996-11-08T01:30:00Z,28.8425,-94.2433,2.0,210.9536409,19.98644541,-99999.0,'11111222,11111222,99999999' 
TABS,ioos:station:wmo:42050:1,1996-11-08T02:00:00Z,28.8425,-94.2433,2.0,206.3705568,19.7893153,-99999.0,'11111222,11111222,99999999' 
TABS,ioos:station:wmo:42050:1,1996-11-08T02:30:00Z,28.8425,-94.2433,2.0,214.7225678,18.3108547,-99999.0,'11111222,11111222,99999999' 
TABS,ioos:station:wmo:42050:1,1996-11-08T03:00:00Z,28.8425,-94.2433,2.0,218.8135582,15.68302586,-99999.0,'11111222,11111222,99999999' 
TABS,ioos:station:wmo:42050:1,1996-11-08T03:30:00Z,28.8425,-94.2433,2.0,216.6321894,14.48012431,-99999.0,'11111222,11111222,99999999' 
TABS,ioos:station:wmo:42050:1,1996-11-08T04:00:00Z,28.8425,-94.2433,2.0,216.1104362,11.62302026,-99999.0,'11111222,11111222,99999999' 
TABS,ioos:station:wmo:42050:1,1996-11-08T04:30:00Z,28.8425,-94.2433,2.0,209.2368368,8.537646046,-99999.0,'11133222,11111222,99999999' 
TABS,ioos:station:wmo:42050:1,1996-11-08T05:00:00Z,28.8425,-94.2433,2.0,195.9306503,5.428489661,-99999.0,'11133222,11111222,99999999' 
TABS,ioos:station:wmo:42050:1,1996-11-08T05:30:00Z,28.8425,-94.2433,2.0,183.4891063,4.929137856,-99999.0,'11133222,11111222,99999999' 
TABS,ioos:station:wmo:42050:1,1996-11-08T06:00:00Z,28.8425,-94.2433,2.0,184.3430193,7.922752047,-99999.0,'11133222,11111222,99999999' 
TABS,ioos:station:wmo:42050:1,1996-11-08T06:30:00Z,28.8425,-94.2433,2.0,169.9789273,10.28693346,-99999.0,'11111222,11111222,99999999' 
TABS,ioos:station:wmo:42050:1,1996-11-08T07:00:00Z,28.8425,-94.2433,2.0,180.6553175,13.1108581,-99999.0,'11111222,11111222,99999999' 
TABS,ioos:station:wmo:42050:1,1996-11-08T07:30:00Z,28.8425,-94.2433,2.0,183.7549584,13.58917584,-99999.0,'11111222,11111222,99999999' 
TABS,ioos:station:wmo:42050:1,1996-11-08T08:00:00Z,28.8425,-94.2433,2.0,184.646992,18.39045948,-99999.0,'11111222,11111222,99999999' 
TABS,ioos:station:wmo:42050:1,1996-11-08T08:30:00Z,28.8425,-94.2433,2.0,198.9827473,20.16676722,-99999.0,'11111222,11111222,99999999' 
TABS,ioos:station:wmo:42050:1,1996-11-08T09:00:00Z,28.8425,-94.2433,2.0,197.2219438,17.63048496,-99999.0,'11111222,11111222,99999999' 
TABS,ioos:station:wmo:42050:1,1996-11-08T09:30:00Z,28.8425,-94.2433,2.0,198.2740912,18.0503518,-99999.0,'11111222,11111222,99999999' 
TABS,ioos:station:wmo:42050:1,1996-11-08T10:00:00Z,28.8425,-94.2433,2.0,185.9820995,15.73569509,-99999.0,'11111222,11111222,99999999' 
TABS,ioos:station:wmo:42050:1,1996-11-08T10:30:00Z,28.8425,-94.2433,2.0,193.4277015,13.4784643,-99999.0,'11111222,11111222,99999999' 
TABS,ioos:station:wmo:42050:1,1996-11-08T11:00:00Z,28.8425,-94.2433,2.0,182.6201874,13.12372279,-99999.0,'11111222,11111222,99999999' 
TABS,ioos:station:wmo:42050:1,1996-11-08T11:30:00Z,28.8425,-94.2433,2.0,178.5934686,12.22368193,-99999.0,'11111222,11111222,99999999' 
TABS,ioos:station:wmo:42050:1,1996-11-08T12:00:00Z,28.8425,-94.2433,2.0,185.1863252,13.1638976,-99999.0,'11111222,11111222,99999999' 
TABS,ioos:station:wmo:42050:1,1996-11-08T12:30:00Z,28.8425,-94.2433,2.0,190.9328415,8.646947438,-99999.0,'11133222,11111222,99999999' 
TABS,ioos:station:wmo:42050:1,1996-11-08T13:00:00Z,28.8425,-94.2433,2.0,187.5818209,9.018852477,-99999.0,'11133222,11111222,99999999' 
TABS,ioos:station:wmo:42050:1,1996-11-08T13:30:00Z,28.8425,-94.2433,2.0,202.4026041,5.483885484,-99999.0,'11133222,11111222,99999999' 
TABS,ioos:station:wmo:42050:1,1996-11-08T14:00:00Z,28.8425,-94.2433,2.0,147.3893648,4.416197459,-99999.0,'11133222,11111222,99999999' 
TABS,ioos:station:wmo:42050:1,1996-11-08T14:30:00Z,28.8425,-94.2433,2.0,149.9073407,3.270856157,-99999.0,'11133222,11111222,99999999' 
TABS,ioos:station:wmo:42050:1,1996-11-08T15:00:00Z,28.8425,-94.2433,2.0,208.902079,9.86927049,-99999.0,'11133222,11111222,99999999' 
TABS,ioos:station:wmo:42050:1,1996-11-08T15:30:00Z,28.8425,-94.2433,2.0,226.5478384,7.59002635,-99999.0,'11133222,11111222,99999999' 
TABS,ioos:station:wmo:42050:1,1996-11-08T16:00:00Z,28.8425,-94.2433,2.0,217.9494505,6.049074309,-99999.0,'11133222,11111222,99999999' 
TABS,ioos:station:wmo:42050:1,1996-11-08T16:30:00Z,28.8425,-94.2433,2.0,208.1897512,9.462372853,-99999.0,'11133222,11111222,99999999' 
TABS,ioos:station:wmo:42050:1,1996-11-08T17:00:00Z,28.8425,-94.2433,2.0,203.2839055,10.54917058,-99999.0,'11111222,11111222,99999999' 
TABS,ioos:station:wmo:42050:1,1996-11-08T17:30:00Z,28.8425,-94.2433,2.0,204.6324893,11.80420688,-99999.0,'11111222,11111222,99999999' 
TABS,ioos:station:wmo:42050:1,1996-11-08T18:00:00Z,28.8425,-94.2433,2.0,186.5582253,13.04537083,-99999.0,'11111222,11111222,99999999' 
TABS,ioos:station:wmo:42050:1,1996-11-08T18:30:00Z,28.8425,-94.2433,2.0,179.366014,13.56082962,-99999.0,'11111222,11111222,99999999' 
TABS,ioos:station:wmo:42050:1,1996-11-08T19:00:00Z,28.8425,-94.2433,2.0,172.4476434,12.47824106,-99999.0,'11111222,11111222,99999999' 
TABS,ioos:station:wmo:42050:1,1996-11-08T19:30:00Z,28.8425,-94.2433,2.0,171.2268337,14.62106015,-99999.0,'11111222,11111222,99999999' 
TABS,ioos:station:wmo:42050:1,1996-11-08T20:00:00Z,28.8425,-94.2433,2.0,169.9057134,20.42617194,-99999.0,'11111222,11111222,99999999' 
TABS,ioos:station:wmo:42050:1,1996-11-08T20:30:00Z,28.8425,-94.2433,2.0,167.1936645,26.88884527,-99999.0,'11111222,11111222,99999999' 
TABS,ioos:station:wmo:42050:1,1996-11-08T21:00:00Z,28.8425,-94.2433,2.0,173.3151064,31.9572527,-99999.0,'11111222,11111222,99999999' 
TABS,ioos:station:wmo:42050:1,1996-11-08T21:30:00Z,28.8425,-94.2433,2.0,165.4703118,33.24316471,-99999.0,'11111222,11111222,99999999' 
TABS,ioos:station:wmo:42050:1,1996-11-08T22:00:00Z,28.8425,-94.2433,2.0,157.235194,26.17931435,-99999.0,'11111222,11111222,99999999' 
TABS,ioos:station:wmo:42050:1,1996-11-08T22:30:00Z,28.8425,-94.2433,2.0,159.5238552,25.12758842,-99999.0,'11111222,11111222,99999999' 
TABS,ioos:station:wmo:42050:1,1996-11-08T23:00:00Z,28.8425,-94.2433,2.0,125.8032604,15.79473647,-99999.0,'11111222,11111222,99999999' 
TABS,ioos:station:wmo:42050:1,1996-11-08T23:30:00Z,28.8425,-94.2433,2.0,109.1922227,21.29347553,-99999.0,'11111222,11111222,99999999' 
TABS,ioos:station:wmo:42050:1,1996-11-09T00:00:00Z,28.8425,-94.2433,2.0,93.62763383,18.8076846,-99999.0,'11111222,11111222,99999999' 
TABS,ioos:station:wmo:42050:1,1996-11-09T00:30:00Z,28.8425,-94.2433,2.0,95.16053098,19.90066582,-99999.0,'11111222,11111222,99999999' 
TABS,ioos:station:wmo:42050:1,1996-11-09T01:00:00Z,28.8425,-94.2433,2.0,90.7794845,22.05204072,-99999.0,'11111222,11111222,99999999' 
TABS,ioos:station:wmo:42050:1,1996-11-09T01:30:00Z,28.8425,-94.2433,2.0,86.61427023,22.68960335,-99999.0,'11111222,11111222,99999999' 
TABS,ioos:station:wmo:42050:1,1996-11-09T02:00:00Z,28.8425,-94.2433,2.0,72.01564053,24.12892455,-99999.0,'11111222,11111222,99999999' 
TABS,ioos:station:wmo:42050:1,1996-11-09T02:30:00Z,28.8425,-94.2433,2.0,81.15820612,22.31518317,-99999.0,'11111222,11111222,99999999' 
TABS,ioos:station:wmo:42050:1,1996-11-09T03:00:00Z,28.8425,-94.2433,2.0,75.79356409,23.67400684,-99999.0,'11111222,11111222,99999999' 
TABS,ioos:station:wmo:42050:1,1996-11-09T03:30:00Z,28.8425,-94.2433,2.0,70.91976096,20.49602157,-99999.0,'11111222,11111222,99999999' 
TABS,ioos:station:wmo:42050:1,1996-11-09T04:00:00Z,28.8425,-94.2433,2.0,70.66294419,20.6870225,-99999.0,'11111222,11111222,99999999' 
TABS,ioos:station:wmo:42050:1,1996-11-09T04:30:00Z,28.8425,-94.2433,2.0,71.85642557,18.65767938,-99999.0,'11111222,11111222,99999999' 
TABS,ioos:station:wmo:42050:1,1996-11-09T05:00:00Z,28.8425,-94.2433,2.0,76.05905519,20.42152786,-99999.0,'11111222,11111222,99999999' 
TABS,ioos:station:wmo:42050:1,1996-11-09T05:30:00Z,28.8425,-94.2433,2.0,80.87761369,16.90380135,-99999.0,'11111222,11111222,99999999' 
TABS,ioos:station:wmo:42050:1,1996-11-09T06:00:00Z,28.8425,-94.2433,2.0,94.22982648,16.13394558,-99999.0,'11111222,11111222,99999999' 
TABS,ioos:station:wmo:42050:1,1996-11-09T06:30:00Z,28.8425,-94.2433,2.0,97.28098112,14.12388757,-99999.0,'11111222,11111222,99999999' 
TABS,ioos:station:wmo:42050:1,1996-11-09T07:00:00Z,28.8425,-94.2433,2.0,111.3579623,11.03806142,-99999.0,'11111222,11111222,99999999' 
TABS,ioos:station:wmo:42050:1,1996-11-09T07:30:00Z,28.8425,-94.2433,2.0,109.6201638,13.7588517,-99999.0,'11111222,11111222,99999999' 
TABS,ioos:station:wmo:42050:1,1996-11-09T08:00:00Z,28.8425,-94.2433,2.0,116.9299245,10.53209381,-99999.0,'11111222,11111222,99999999' 
TABS,ioos:station:wmo:42050:1,1996-11-09T08:30:00Z,28.8425,-94.2433,2.0,124.8704914,11.98129375,-99999.0,'11111222,11111222,99999999' 
TABS,ioos:station:wmo:42050:1,1996-11-09T09:00:00Z,28.8425,-94.2433,2.0,128.0721563,14.0110849,-99999.0,'11111222,11111222,99999999' 
TABS,ioos:station:wmo:42050:1,1996-11-09T09:30:00Z,28.8425,-94.2433,2.0,151.163395,11.73516084,-99999.0,'11111222,11111222,99999999' 
TABS,ioos:station:wmo:42050:1,1996-11-09T10:00:00Z,28.8425,-94.2433,2.0,153.4655715,8.327118349,-99999.0,'11133222,11111222,99999999' 
TABS,ioos:station:wmo:42050:1,1996-11-09T10:30:00Z,28.8425,-94.2433,2.0,158.198431,8.023895563,-99999.0,'11133222,11111222,99999999' 
TABS,ioos:station:wmo:42050:1,1996-11-09T11:00:00Z,28.8425,-94.2433,2.0,174.363862,7.636916917,-99999.0,'11133222,11111222,99999999' 
TABS,ioos:station:wmo:42050:1,1996-11-09T11:30:00Z,28.8425,-94.2433,2.0,176.5104728,4.929137856,-99999.0,'11133222,11111222,99999999' 
TABS,ioos:station:wmo:42050:1,1996-11-09T12:00:00Z,28.8425,-94.2433,2.0,134.9998948,2.107178208,-99999.0,'11133222,11111222,99999999' 
TABS,ioos:station:wmo:42050:1,1996-11-09T12:30:00Z,28.8425,-94.2433,2.0,127.2486683,3.93208596,-99999.0,'11133222,11111222,99999999' 
TABS,ioos:station:wmo:42050:1,1996-11-09T13:00:00Z,28.8425,-94.2433,2.0,326.0141228,1.073359213,-99999.0,'11133222,11111222,99999999' 
TABS,ioos:station:wmo:42050:1,1996-11-09T13:30:00Z,28.8425,-94.2433,2.0,355.2100909,1.796273921,-99999.0,'11133222,11111222,99999999' 
TABS,ioos:station:wmo:42050:1,1996-11-09T14:00:00Z,28.8425,-94.2433,2.0,325.2384894,6.524415683,-99999.0,'11133222,11111222,99999999' 
TABS,ioos:station:wmo:42050:1,1996-11-09T14:30:00Z,28.8425,-94.2433,2.0,342.2834899,7.820927055,-99999.0,'11133222,11111222,99999999' 
TABS,ioos:station:wmo:42050:1,1996-11-09T15:00:00Z,28.8425,-94.2433,2.0,349.8901443,11.05160622,-99999.0,'11111222,11111222,99999999' 
TABS,ioos:station:wmo:42050:1,1996-11-09T15:30:00Z,28.8425,-94.2433,2.0,355.4339418,14.9474446,-99999.0,'11111222,11111222,99999999' 
TABS,ioos:station:wmo:42050:1,1996-11-09T16:00:00Z,28.8425,-94.2433,2.0,351.0870771,12.52120202,-99999.0,'11111222,11111222,99999999' 
TABS,ioos:station:wmo:42050:1,1996-11-09T16:30:00Z,28.8425,-94.2433,2.0,355.6622404,13.74938908,-99999.0,'11111222,11111222,99999999' 
TABS,ioos:station:wmo:42050:1,1996-11-09T17:00:00Z,28.8425,-94.2433,2.0,357.547934,14.02284208,-99999.0,'11111222,11111222,99999999' 
TABS,ioos:station:wmo:42050:1,1996-11-09T17:30:00Z,28.8425,-94.2433,2.0,3.35719133,17.76047578,-99999.0,'11111222,11111222,99999999' 
TABS,ioos:station:wmo:42050:1,1996-11-09T18:00:00Z,28.8425,-94.2433,2.0,0.454447603,18.9205946,-99999.0,'11111222,11111222,99999999' 
TABS,ioos:station:wmo:42050:1,1996-11-09T18:30:00Z,28.8425,-94.2433,2.0,0.000210459,19.07,-99999.0,'11111222,11111222,99999999' 
TABS,ioos:station:wmo:42050:1,1996-11-09T19:00:00Z,28.8425,-94.2433,2.0,357.5779809,17.74585585,-99999.0,'11111222,11111222,99999999' 
TABS,ioos:station:wmo:42050:1,1996-11-09T19:30:00Z,28.8425,-94.2433,2.0,358.9611047,16.54272045,-99999.0,'11111222,11111222,99999999' 
TABS,ioos:station:wmo:42050:1,1996-11-09T20:00:00Z,28.8425,-94.2433,2.0,349.3126786,16.06874295,-99999.0,'11111222,11111222,99999999' 
TABS,ioos:station:wmo:42050:1,1996-11-09T20:30:00Z,28.8425,-94.2433,2.0,355.0929221,13.91099206,-99999.0,'11111222,11111222,99999999' 
TABS,ioos:station:wmo:42050:1,1996-11-09T21:00:00Z,28.8425,-94.2433,2.0,354.9506678,11.81585799,-99999.0,'11111222,11111222,99999999' 
TABS,ioos:station:wmo:42050:1,1996-11-09T21:30:00Z,28.8425,-94.2433,2.0,357.4184882,9.990140139,-99999.0,'11133222,11111222,99999999' 
TABS,ioos:station:wmo:42050:1,1996-11-09T22:00:00Z,28.8425,-94.2433,2.0,357.8659567,8.055588123,-99999.0,'11133222,11111222,99999999' 
TABS,ioos:station:wmo:42050:1,1996-11-09T22:30:00Z,28.8425,-94.2433,2.0,358.950957,8.191373511,-99999.0,'11133222,11111222,99999999' 
TABS,ioos:station:wmo:42050:1,1996-11-09T23:00:00Z,28.8425,-94.2433,2.0,4.514188361,7.623647421,-99999.0,'11133222,11111222,99999999' 
TABS,ioos:station:wmo:42050:1,1996-11-09T23:30:00Z,28.8425,-94.2433,2.0,7.237115562,8.255767681,-99999.0,'11133222,11111222,99999999' 
TABS,ioos:station:wmo:42050:1,1996-11-10T00:00:00Z,28.8425,-94.2433,2.0,7.591479163,11.27885189,-99999.0,'11111222,11111222,99999999' 
TABS,ioos:station:wmo:42050:1,1996-11-10T00:30:00Z,28.8425,-94.2433,2.0,10.02107273,10.28693346,-99999.0,'11111222,11111222,99999999' 
TABS,ioos:station:wmo:42050:1,1996-11-10T01:00:00Z,28.8425,-94.2433,2.0,13.63503445,10.73246477,-99999.0,'11111222,11111222,99999999' 
TABS,ioos:station:wmo:42050:1,1996-11-10T01:30:00Z,28.8425,-94.2433,2.0,13.13825398,13.77043935,-99999.0,'11111222,11111222,99999999' 
TABS,ioos:station:wmo:42050:1,1996-11-10T02:00:00Z,28.8425,-94.2433,2.0,10.39814593,16.51114775,-99999.0,'11111222,11111222,99999999' 
TABS,ioos:station:wmo:42050:1,1996-11-10T02:30:00Z,28.8425,-94.2433,2.0,17.64435865,16.72687957,-99999.0,'11111222,11111222,99999999' 
TABS,ioos:station:wmo:42050:1,1996-11-10T03:00:00Z,28.8425,-94.2433,2.0,27.28940366,15.92207587,-99999.0,'11111222,11111222,99999999' 
TABS,ioos:station:wmo:42050:1,1996-11-10T03:30:00Z,28.8425,-94.2433,2.0,34.5402206,16.82590859,-99999.0,'11111222,11111222,99999999' 
TABS,ioos:station:wmo:42050:1,1996-11-10T04:00:00Z,28.8425,-94.2433,2.0,37.82807766,16.0282407,-99999.0,'11111222,11111222,99999999' 
TABS,ioos:station:wmo:42050:1,1996-11-10T04:30:00Z,28.8425,-94.2433,2.0,37.06775688,16.80610008,-99999.0,'11111222,11111222,99999999' 
TABS,ioos:station:wmo:42050:1,1996-11-10T05:00:00Z,28.8425,-94.2433,2.0,43.14116227,16.13052386,-99999.0,'11111222,11111222,99999999' 
TABS,ioos:station:wmo:42050:1,1996-11-10T05:30:00Z,28.8425,-94.2433,2.0,48.1317791,15.40257446,-99999.0,'11111222,11111222,99999999' 
TABS,ioos:station:wmo:42050:1,1996-11-10T06:00:00Z,28.8425,-94.2433,2.0,42.06943958,12.44721656,-99999.0,'11111222,11111222,99999999' 
TABS,ioos:station:wmo:42050:1,1996-11-10T06:30:00Z,28.8425,-94.2433,2.0,59.29583137,10.22313553,-99999.0,'11111222,11111222,99999999' 
TABS,ioos:station:wmo:42050:1,1996-11-10T07:00:00Z,28.8425,-94.2433,2.0,59.31977996,11.09266424,-99999.0,'11111222,11111222,99999999' 
TABS,ioos:station:wmo:42050:1,1996-11-10T07:30:00Z,28.8425,-94.2433,2.0,73.93923471,10.22926195,-99999.0,'11111222,11111222,99999999' 
TABS,ioos:station:wmo:42050:1,1996-11-10T08:00:00Z,28.8425,-94.2433,2.0,84.77408481,6.587381877,-99999.0,'11133222,11111222,99999999' 
TABS,ioos:station:wmo:42050:1,1996-11-10T08:30:00Z,28.8425,-94.2433,2.0,115.4561795,6.933108971,-99999.0,'11133222,11111222,99999999' 
TABS,ioos:station:wmo:42050:1,1996-11-10T09:00:00Z,28.8425,-94.2433,2.0,116.5984366,7.660770196,-99999.0,'11133222,11111222,99999999' 
TABS,ioos:station:wmo:42050:1,1996-11-10T09:30:00Z,28.8425,-94.2433,2.0,115.6279188,7.930157628,-99999.0,'11133222,11111222,99999999' 
TABS,ioos:station:wmo:42050:1,1996-11-10T10:00:00Z,28.8425,-94.2433,2.0,131.6546665,8.96725153,-99999.0,'11133222,11111222,99999999' 
TABS,ioos:station:wmo:42050:1,1996-11-10T10:30:00Z,28.8425,-94.2433,2.0,148.1953962,8.766236365,-99999.0,'11133222,11111222,99999999' 
TABS,ioos:station:wmo:42050:1,1996-11-10T11:00:00Z,28.8425,-94.2433,2.0,128.8422238,7.844647857,-99999.0,'11133222,11111222,99999999' 
TABS,ioos:station:wmo:42050:1,1996-11-10T11:30:00Z,28.8425,-94.2433,2.0,147.8861848,8.972898083,-99999.0,'11133222,11111222,99999999' 
TABS,ioos:station:wmo:42050:1,1996-11-10T12:00:00Z,28.8425,-94.2433,2.0,151.2804942,7.138101989,-99999.0,'11133222,11111222,99999999' 
TABS,ioos:station:wmo:42050:1,1996-11-10T12:30:00Z,28.8425,-94.2433,2.0,145.8826543,5.580439051,-99999.0,'11133222,11111222,99999999' 
TABS,ioos:station:wmo:42050:1,1996-11-10T13:00:00Z,28.8425,-94.2433,2.0,71.43691632,1.413541651,-99999.0,'11133222,11111222,99999999' 
TABS,ioos:station:wmo:42050:1,1996-11-10T13:30:00Z,28.8425,-94.2433,2.0,100.5679895,4.089364254,-99999.0,'11133222,11111222,99999999' 
TABS,ioos:station:wmo:42050:1,1996-11-10T14:00:00Z,28.8425,-94.2433,2.0,47.74380379,2.215784286,-99999.0,'11133222,11111222,99999999' 
TABS,ioos:station:wmo:42050:1,1996-11-10T14:30:00Z,28.8425,-94.2433,2.0,45.00010523,5.685138521,-99999.0,'11133222,11111222,99999999' 
TABS,ioos:station:wmo:42050:1,1996-11-10T15:00:00Z,28.8425,-94.2433,2.0,27.26224715,11.39584573,-99999.0,'11111222,11111222,99999999' 
TABS,ioos:station:wmo:42050:1,1996-11-10T15:30:00Z,28.8425,-94.2433,2.0,25.95461184,12.5897776,-99999.0,'11111222,11111222,99999999' 
TABS,ioos:station:wmo:42050:1,1996-11-10T16:00:00Z,28.8425,-94.2433,2.0,41.13430355,15.62726144,-99999.0,'11111222,11111222,99999999' 
TABS,ioos:station:wmo:42050:1,1996-11-10T16:30:00Z,28.8425,-94.2433,2.0,30.10811807,17.2238091,-99999.0,'11111222,11111222,99999999' 
TABS,ioos:station:wmo:42050:1,1996-11-10T17:00:00Z,28.8425,-94.2433,2.0,32.81884972,18.96739307,-99999.0,'11111222,11111222,99999999' 
TABS,ioos:station:wmo:42050:1,1996-11-10T17:30:00Z,28.8425,-94.2433,2.0,27.88427405,20.39834552,-99999.0,'11111222,11111222,99999999' 
TABS,ioos:station:wmo:42050:1,1996-11-10T18:00:00Z,28.8425,-94.2433,2.0,28.37111073,21.00263793,-99999.0,'11111222,11111222,99999999' 
TABS,ioos:station:wmo:42050:1,1996-11-10T18:30:00Z,28.8425,-94.2433,2.0,28.92719878,20.94291766,-99999.0,'11111222,11111222,99999999' 
TABS,ioos:station:wmo:42050:1,1996-11-10T19:00:00Z,28.8425,-94.2433,2.0,33.82026855,19.54768528,-99999.0,'11111222,11111222,99999999' 
TABS,ioos:station:wmo:42050:1,1996-11-10T19:30:00Z,28.8425,-94.2433,2.0,37.50483363,18.59314121,-99999.0,'11111222,11111222,99999999' 
TABS,ioos:station:wmo:42050:1,1996-11-10T20:00:00Z,28.8425,-94.2433,2.0,45.00010523,18.5403398,-99999.0,'11111222,11111222,99999999' 
TABS,ioos:station:wmo:42050:1,1996-11-10T20:30:00Z,28.8425,-94.2433,2.0,47.65843092,18.1426707,-99999.0,'11111222,11111222,99999999' 
TABS,ioos:station:wmo:42050:1,1996-11-10T21:00:00Z,28.8425,-94.2433,2.0,50.51652988,16.40306374,-99999.0,'11111222,11111222,99999999' 
TABS,ioos:station:wmo:42050:1,1996-11-10T21:30:00Z,28.8425,-94.2433,2.0,52.90644334,13.82810544,-99999.0,'11111222,11111222,99999999' 
TABS,ioos:station:wmo:42050:1,1996-11-10T22:00:00Z,28.8425,-94.2433,2.0,63.45637397,11.99426947,-99999.0,'11111222,11111222,99999999' 
TABS,ioos:station:wmo:42050:1,1996-11-10T22:30:00Z,28.8425,-94.2433,2.0,69.90831064,11.26558032,-99999.0,'11111222,11111222,99999999' 
TABS,ioos:station:wmo:42050:1,1996-11-10T23:00:00Z,28.8425,-94.2433,2.0,78.82554442,10.78445641,-99999.0,'11111222,11111222,99999999' 
TABS,ioos:station:wmo:42050:1,1996-11-10T23:30:00Z,28.8425,-94.2433,2.0,76.20054687,9.978000802,-99999.0,'11133222,11111222,99999999' 
TABS,ioos:station:wmo:42050:1,1996-11-11T00:00:00Z,28.8425,-94.2433,2.0,73.82559091,9.620810777,-99999.0,'11133222,11111222,99999999' 
TABS,ioos:station:wmo:42050:1,1996-11-11T00:30:00Z,28.8425,-94.2433,2.0,73.94278639,9.146857384,-99999.0,'11133222,11111222,99999999' 